Home > Weather > Xiamen > Past weeks

Flag for China Past Weather in Xiamen, Fujian, China — Yesterday and Last 2 Weeks

Now
95 °F

Sunny.


Feels Like: 107 °F
Forecast: 84 / 92 °F
Wind: 15 mph from Northeast

Location: Xiamen Airport

Current Time: Jul 31, 2016 at 5:42:58 PM

Latest Report: Jul 31, 2016 at 5:00 PM


Visibility: 10 mi

Pressure: 29.59 "Hg

Humidity: 53%

Dew Point: 75 °F

Location of XiamenLocation

Past Weather in Xiamen — Graph

°F

Xiamen Temperature Yesterday

Maximum temperature yesterday: 93 °F (at 12:00 PM)
Minimum temperature yesterday: 81 °F (at 4:00 AM)
Average temperature yesterday: 88 °F

High & Low Weather Summary for the Past Weeks

 TemperatureHumidityPressure
High99 °F (Jul 28, 2:00 PM)100% (Jul 17, 11:00 PM)29.89 "Hg (Jul 17, 11:00 PM)
Low79 °F (Jul 25, 5:00 AM)44% (Jul 25, 1:00 PM)29.62 "Hg (Jul 31, 3:00 PM)
Average87 °F75%29.76 "Hg
* Reported Jul 16 4:00 PM — Jul 31 4:00 PM, Xiamen, Weather by CustomWeather, © 2016

Note: Actual official high and low records may vary slightly from our data, if they occured in-between our weather recording intervals... More about our weather records

Advertising

Xiamen Weather History for the Previous 24 Hours

Scroll right to see more
 ConditionsComfort  
Time TempWeatherWind HumidityBarometerVisibility
4:00 PM
Sun, Jul 31
91 °FScattered clouds.10 mph59%29.62 "HgN/A
3:00 PM95 °FPartly sunny.13 mph50%29.62 "HgN/A
2:00 PM95 °FPassing clouds.15 mph50%29.65 "HgN/A
1:00 PM95 °FScattered clouds.13 mph50%29.68 "HgN/A
12:00 PM93 °FPartly sunny.8 mph59%29.68 "HgN/A
11:00 AM93 °FPartly sunny.13 mph59%29.71 "HgN/A
10:00 AM91 °FPassing clouds.13 mph59%29.71 "HgN/A
9:00 AM90 °FPassing clouds.8 mph63%29.71 "HgN/A
8:00 AM88 °FPassing clouds.6 mph66%29.71 "HgN/A
7:00 AM86 °FPassing clouds.3 mph75%29.71 "HgN/A
6:00 AM82 °FScattered clouds.3 mph89%29.71 "Hg4 mi
5:00 AM84 °FClear.1 mph79%29.71 "Hg10 mi
4:00 AM84 °FPassing clouds.3 mph79%29.71 "HgN/A
3:00 AM82 °FClear.1 mph84%29.71 "Hg10 mi
2:00 AM84 °FClear.6 mph79%29.71 "Hg10 mi
1:00 AM84 °FClear.6 mph79%29.74 "Hg10 mi
12:00 AM84 °FClear.8 mph79%29.74 "Hg10 mi
11:00 PM
Sat, Jul 30
86 °FPassing clouds.3 mph84%29.74 "HgN/A
10:00 PM86 °FPassing clouds.8 mph84%29.74 "HgN/A
9:00 PM86 °FPassing clouds.6 mph84%29.74 "HgN/A
8:00 PM86 °FPassing clouds.10 mph84%29.74 "HgN/A
7:00 PM86 °FPassing clouds.8 mph84%29.71 "HgN/A
6:00 PM88 °FScattered clouds.8 mph75%29.68 "HgN/A
5:00 PM91 °FScattered clouds.8 mph63%29.68 "HgN/A
Weather by CustomWeather, © 2016

See weather overviewHow to use our weather pages